Regional Weather Roundup
Issued by NWS

Home | Current Version | Previous Version | Graphics & Text | Print | Product List | Glossary On
Versions: 1 2 3 4 5 6 7 8 9 10 11 12 13 14 15 16 17 18 19 20 21 22 23 24 25 26 27 28 29 30 31 32 33 34 35 36 37 38 39 40 41 42 43 44 45 46 47 48 49 50
000
ASUS43 KMKX 221700
RWRWI

WISCONSIN REGIONAL WEATHER ROUNDUP
NATIONAL WEATHER SERVICE MILWAUKEE/SULLIVAN WI
1200 PM CDT WED MAR 22 2017

NOTE: "FAIR" INDICATES FEW OR NO CLOUDS BELOW 12,000 FEET WITH NO
SIGNIFICANT WEATHER AND/OR OBSTRUCTIONS TO VISIBILITY.

WIZ001-002-006>008-014>016-023>028-221800-
NORTHWEST WISCONSIN

CITY           SKY/WX    TMP DP  RH WIND       PRES   REMARKS
SUPERIOR ARPT  MOSUNNY   30   8  39 S6        30.58S WCI  24
ASHLAND        SUNNY     31  12  45 VRB5      30.58F WCI  26
HAYWARD        SUNNY     28   5  37 VRB6      30.55S WCI  22
SIREN          SUNNY     31   6  34 S8        30.54F WCI  24
CUMBERLAND     SUNNY     30   7  37 E7        30.54F WCI  23
RICE LAKE      SUNNY     30   8  39 CALM      30.56F
CHETEK         SUNNY     30   9  41 SE12      30.56F WCI  20
LADYSMITH      SUNNY     29   9  42 E5G16     30.57F WCI  24
EAU CLAIRE     NOT AVBL
MENOMONIE      SUNNY     33   6  32 SE8       30.57S WCI  26
NEW RICHMOND   SUNNY     31   6  34 S12       30.54F WCI  22
OSCEOLA        SUNNY     32   8  36 SE13      30.57F WCI  22
$$

WIZ003>005-009-010-017-018-221800-
NORTH CENTRAL WISCONSIN

CITY           SKY/WX    TMP DP  RH WIND       PRES   REMARKS
MANITOWISH WTR SUNNY     24   6  46 SE6       30.54R WCI  17
ARBOR VITAE    SUNNY     25   7  46 W6        30.53S WCI  18
WOODRUFF       SUNNY     25   7  46 W6        30.53S WCI  18
RHINELANDER    SUNNY     27   6  41 VRB6      30.54S WCI  20
EAGLE RIVER    SUNNY     24   3  40 E6        30.54S WCI  17
LAND O LAKES   SUNNY     24   4  40 CALM      30.54F
PHILLIPS       SUNNY     26   7  43 S5        30.53F WCI  21
TOMAHAWK       SUNNY     27   6  41 CALM      30.56S
MEDFORD        SUNNY     24  10  53 S10       30.55F WCI  14
MERRILL        SUNNY     27   8  44 S3        30.58S
$$

WIZ029-030-035-036-043>047-221800-
CENTRAL WISCONSIN

CITY           SKY/WX    TMP DP  RH WIND       PRES   REMARKS
WAUSAU         SUNNY     26   7  44 CALM      30.57S
MOSINEE        SUNNY     27   9  46 VRB6      30.58S WCI  20
MARSHFIELD     SUNNY     28   8  43 E8        30.55F WCI  20
STEVENS POINT  SUNNY     25   6  44 SE3       30.60S
WAUPACA        SUNNY     30   8  38 SE7       30.63R WCI  24
WAUTOMA        SUNNY     28  11  48 CALM      30.61
WISC RAPIDS    SUNNY     30   7  37 SE6       30.60F WCI  24
CAMP DOUGLAS   NOT AVBL
$$

WIZ011>013-019>022-031-037>040-048>050-221800-
NORTHEAST WISCONSIN

CITY           SKY/WX    TMP DP  RH WIND       PRES   REMARKS
ANTIGO         SUNNY     25   6  44 CALM      30.56S
SHAWANO        SUNNY     29  10  45 NE5       30.63S WCI  24
OCONTO         MOSUNNY   26  12  55 E8        30.64S WCI  18
STURGEON BAY   PTSUNNY   27  13  55 E5        30.63S WCI  22
GREEN BAY      SUNNY     30  17  58 VRB5      30.63S WCI  25
MANITOWOC      NOT AVBL
APPLETON       SUNNY     28   9  43 VRB5      30.60S WCI  23
CLINTONVILLE   SUNNY     30   7  37 S3        30.62S
OSHKOSH        SUNNY     27  12  53 E7        30.62S WCI  19
$$

WIZ032>034-041-042-053>061-221800-
SOUTHWEST WISCONSIN

CITY           SKY/WX    TMP DP  RH WIND       PRES   REMARKS
LA CROSSE      SUNNY     34   6  31 SE9       30.58F WCI  27
SPARTA         SUNNY     32   7  34 E7        30.59F WCI  26
VIROQUA        SUNNY     31   7  36 E10       30.55S WCI  22
BOSCOBEL       SUNNY     35   5  28 NE6       30.59F WCI  30
PRAIRIE DU CHI SUNNY     33   7  33 E12       30.58F WCI  24
PLATTEVILLE    SUNNY     32  12  44 E10       30.57F WCI  23
$$

WIZ056-057-062-063-064-067-068-221800-
SOUTH CENTRAL WISCONSIN

CITY           SKY/WX    TMP DP  RH WIND       PRES   REMARKS
REEDSBURG      SUNNY     30   7  37 CALM      30.58F
BARABOO/DELLS  SUNNY     29   6  38 S3        30.59F
LONE ROCK      NOT AVBL
MINERAL POINT  SUNNY     32   9  37 E6        30.56S WCI  26
MADISON        MOSUNNY   30  10  43 VRB6      30.58F WCI  24
MIDDLETON      SUNNY     31  12  44 E9        30.59F WCI  23
WATERTOWN      SUNNY     31  15  51 E7        30.59S WCI  25
MONROE         SUNNY     32  12  43 NE13      30.56S WCI  22
JANESVILLE     SUNNY     34  12  40 E12G17    30.58F WCI  25
$$

WIZ051-052-058>065-066-070>072-221800-
SOUTHEAST WISCONSIN

CITY           SKY/WX    TMP DP  RH WIND       PRES   REMARKS
MILWAUKEE      CLOUDY    32  16  51 E8        30.60F WCI  25
WAUKESHA       PTSUNNY   30  16  55 E8        30.60F WCI  23
MILWAUKEE/TIMM MOSUNNY   30  12  47 E7        30.62S WCI  23
RACINE         CLOUDY    32  16  51 NE8       30.62S WCI  25
KENOSHA        CLOUDY    31  16  54 NE7       30.59F WCI  24
FOND DU LAC    SUNNY     30  13  49 VRB5      30.61S WCI  25
SHEBOYGAN      CLOUDY    28  17  63 NE9       30.62S WCI  19
WEST BEND      CLOUDY    30  16  55 N3        30.60S
JUNEAU         MOSUNNY   29  13  52 E3        30.60F
$$

LSZ147-162-221800-
LAKE SUPERIOR

STATION/POSITION TIME  TEMP    WIND        PRES    WAVE
                       AIR SEA DIR/SP/G            HT/PER
                 (UTC) (F)     (DEG/KT/KT) (MB)    (FT/S)
DEVILS ISLAND    1600   24      90/  6/  8 1037.6R
PORT WING        1640   28      10/  6/  7 1035.6F
SAXON HARBOR     1640   27      30/  7/  8 1035.2F
$$

LMZ867-665-643>646-221800-
LAKE MICHIGAN

STATION/POSITION TIME  TEMP    WIND        PRES    WAVE
                       AIR SEA DIR/SP/G            HT/PER
                 (UTC) (F)     (DEG/KT/KT) (MB)    (FT/S)
CHAMBERS ISLAND  1640   24      10/  6/  7 1036.9R
NORTHPORT PIER   1640   23      90/  4/  7 1036.9S
SISTER BAY       1535   35      30/ 10/ 12   N/A
KEWAUNEE LAKESHO 1630   25      30/  8/ 11 1036.6R
SHEBOYGAN LAKESH 1600   26     360/  9/ 11 1037.8R
PORT WASHINGTON  1640   29      70/  3/  7 1037.6F
MILWAUKEE LAKESH 1630   28      50/  8/  9   N/A
KENOSHA   LAKESH 1600   28      60/ 11/ 14 1036.6
$$

TC  - TEMPERATURE IN CELSIUS
VSB - VISIBILITY IN STATUTE MILES
WCI - WIND CHILL INDEX
HX  - HEAT INDEX





USA.gov is the U.S. government's official web portal to all federal, state and local government web resources and services.